www.pogodaiklimat.ru

Погода и климат >> Архив погоды >> Россия >> Челябинская область >> Бродокалмак


ПОГОДА в Бродокалмаке

  • Прогноз погоды в Бродокалмаке
  • Монитор погоды в Бродокалмаке

АРХИВ ПОГОДЫ в Бродокалмаке

Время (UTC), дата Ветер
(напр.,м/с)
 
Видим.   Явления Облачность Т
(С)
Тd
(С)
f
(%)
Тe
(С)
Тes
(С)
Комфортность P
(гПа)
Po
(гПа)
Тmin
(С)
Tmax
(С)
R
(мм)
R24
(мм)
S
(см)
00 14.03 СВ 2 2000 м слаб. ливневой снег 10/10 600 м
[Cb cap]
-1.4 -2.2 94 -5 -5 1012.8 993.0
03 14.03 СВ 3 2000 м слаб. ливневой снег 10/10 600 м
[Cb cap]
-1.7 -2.4 95 -7 -7 1010.9 991.1 -1.7 5 37
06 14.03 СВ 4 20 км в посл. час ливневой снег 10/0 2000 м
[As trans]
-1.4 -2.4 93 -7 -6 1007.9 988.1 -1.8
09 14.03 СВ 5 1000 м сильн. снег 10/0 600 м
[As op]
-0.9 -1.6 95 -7 -7 1004.1 984.5
12 14.03 С 3 2000 м снег 10/0 600 м
[As op]
-0.6 -1.3 95 -6 -5 999.9 980.3
15 14.03 СЗ 2 2000 м снег 10/0 600 м
[As op]
-2.4 -3.1 95 -7 -7 996.6 977.0 -0.5 11
18 14.03 З 4
{11}
10 км {снег} 10/0 2000 м
[As trans]
-3.8 -5.3 89 -10 -10 998.1 978.3
21 14.03 З 5
{11}
4000 м слаб. снег {метель} 6/6 600 м
[Sc]
-3.8 -5.9 85 -11 -11 1000.7 980.9
00 15.03 З 5
{12}
10 км позёмок {снег} 8/3 600 м
[Sc Ci fib]
-2.8 -6.5 76 -9 -9 1003.2 983.4
03 15.03 З 6-11
{13}
20 км позёмок 8/5 600 м
[Sc Ci fib]
-5.0 -9.1 73 -13 -12 1006.0 986.0 -5.0 1 42
06 15.03 З 5-12
{12}
20 км позёмок 10/3 600 м
[Sc Ac trans Ci fib]
-3.8 -9.7 64 -10 -9 1008.3 988.3 -5.0
09 15.03 З 7-14
{17}
10 км метель 10/0 2000 м
[Ac As]
-3.1 -10.7 56 -10 -10 1009.8 989.8
12 15.03 З 6-13
{14}
20 км позёмок 8/8 600 м
[Sc]
-3.3 -11.1 55 -10 -10 1012.6 992.6
15 15.03 З 4
{14}
10 км {метель} 4/3 600 м
[Sc Ci fib]
-4.1 -12.5 52 -10 -10 1014.3 994.3 -2.3
18 15.03 З 4-11
{11}
10 км {метель} 4/4 600 м
[Sc]
-4.7 -13.0 52 -11 -11 1016.4 996.2
21 15.03 З 4
{11}
10 км 3/0
[Ac As]
-5.7 -13.4 55 -12 -12 1018.1 997.8
00 16.03 З 3 10 км ясно -7.6 -14.1 60 -13 -13 1020.0 999.5
03 16.03 З 4 20 км ясно -8.4 -14.3 62 -15 -15 1022.2 1001.7 -8.9 40
06 16.03 З 4
{11}
20 км позёмок ясно -4.1 -13.1 50 -10 -6 1023.0 1002.7
09 16.03 З 4
{10}
20 км {метель} 3/0 2000 м
[Ac trans]
-1.2 -13.5 39 -6 -3 1023.2 1003.1
12 16.03 З 3 20 км {метель} ясно +0.2 -14.0 33 -3 -2 1022.9 1002.9
15 16.03 ЮЗ 1 10 км ясно -4.5 -12.7 53 -6 -6 1024.3 1004.0 +0.4
18 16.03 штиль 0 10 км ясно -12.6 -15.9 76 -13 -13 1025.9 1004.9
21 16.03 ЮЗ 1 10 км ясно -15.6 -17.7 84 -18 -18 1026.8 1005.5
00 17.03 штиль 0 10 км ясно -17.3 -19.3 84 -17 -17 1027.8 1006.4
03 17.03 ЮЗ 1 20 км 10/0
[Ci]
-15.9 -18.3 82 -19 -18 1028.9 1007.6 -17.9 40
06 17.03 СВ 1 20 км 8/0
[Ci]
-2.3 -12.0 47 -4 +2 1028.7 1008.4
09 17.03 Ю 2 20 км ясно +2.3 -12.6 32 0 +7 1028.3 1008.4
12 17.03 ЮВ 2 20 км ясно +2.1 -12.7 32 -0 +1 1028.3 1008.4
15 17.03 ЮВ 2 10 км ясно -3.8 -11.5 55 -7 -7 1029.8 1009.4 +3.2
18 17.03 Ю 1 10 км ясно -10.1 -13.5 76 -12 -12 1031.1 1010.2
21 17.03 штиль 0 10 км ясно -12.9 -14.6 87 -13 -13 1031.5 1010.4
00 18.03 Ю 2 10 км ясно -15.7 -17.4 87 -21 -21 1032.6 1011.2
03 18.03 штиль 0 20 км ясно -15.3 -17.5 83 -15 -15 1033.0 1011.6 -16.9 38
06 18.03 Ю 2 20 км ясно -1.4 -9.4 54 -5 +1 1032.3 1012.0
09 18.03 ЮВ 2 20 км ясно +1.4 -13.7 31 -1 +6 1032.6 1012.5
12 18.03 Ю 1 20 км 10/0
[Ci fib]
+1.4 -13.7 31 +1 +2 1031.9 1011.9
15 18.03 штиль 0 10 км 10/3 600 м
[Sc As trans]
-3.9 -10.7 59 -4 -4 1032.2 1011.8 +1.9
18 18.03 Ю 2 10 км 10/0 2000 м
[As trans]
-5.8 -11.4 65 -10 -10 1032.2 1011.6
21 18.03 Ю 2 10 км 10/4 600 м
[Sc Ci fib]
-5.8 -9.7 74 -10 -10 1032.2 1011.6
00 19.03 Ю 1 10 км 4/0
[Ci fib]
-12.1 -13.6 89 -14 -14 1032.5 1011.4
03 19.03 штиль 0 20 км 10/3 600 м
[Sc Ci fib]
-13.4 -15.3 86 -13 -13 1032.8 1011.6 -14.8 37
06 19.03 штиль 0 20 км 10/3 600 м
[Sc Ac trans Ci fib]
-3.4 -8.9 66 -4 -1 1032.1 1011.7
09 19.03 Ю 2 20 км 3/0
[Ci fib]
-0.3 -10.8 45 -3 +3 1031.5 1011.3
12 19.03 ЮВ 3 20 км 5/0
[Ci]
-1.3 -10.0 52 -6 -4 1031.0 1010.8
15 19.03 ЮВ 1 10 км 3/0
[Ci fib]
-6.9 -11.1 72 -9 -9 1031.4 1010.7 +0.1
18 19.03 штиль 0 10 км 10/0
[Ci fib]
-13.6 -15.2 88 -14 -14 1031.9 1010.7
21 19.03 штиль 0 10 км ясно -16.2 -18.3 84 -16 -16 1031.3 1009.9
00 20.03 Ю 1 10 км 4/0
[Ci fib]
-16.8 -18.9 84 -20 -20 1030.2 1008.8
03 20.03 Ю 1 4000 м дымка 3/0 2000 м
[Ac As Ci fib]
-12.1 -13.8 87 -14 -14 1029.3 1008.3 -18.7 37
06 20.03 ЮВ 1 20 км ясно -5.5 -9.7 72 -8 -1 1027.9 1007.5
09 20.03 Ю 3 20 км ясно -0.5 -9.0 53 -5 +1 1026.3 1006.2
12 20.03 Ю 3 20 км ясно +0.7 -10.2 44 -3 -2 1024.9 1004.9
15 20.03 Ю 2 10 км 1/0
[Ci fib]
-3.4 -8.9 66 -7 -7 1024.3 1004.0 +1.1
18 20.03 Ю 1 10 км ясно -6.2 -9.1 80 -8 -8 1023.7 1003.3

 

Местоположение метеостанции Бродокалмак (Челябинская область, Россия): широта 55.58 долгота 62.07 высота над уровнем моря 157 м.

В архиве по умолчанию представлена погода в Бродокалмаке за последнюю неделю. Архивные данные за месяц целиком и за предыдущие месяцы, начиная с января 2011 года, Вы можете получить, выбрав интересующий диапазон дат из раскрывающегося списка и нажав кнопку "Ввод!".


*Определитесь, кто Вы:
робот инопланетянин человек

Внимание! Время в таблицах - всемирное. Для получения местного времени необходимо прибавить поправку, которая равна 5 ч.

Смотрите также архив погоды в соседних городах и на ближайших метеорологических станциях:

Погода в Челябинске (Челябинская область, Россия) (68 км)
Погода в Аргаяше (Челябинская область, Россия) (74 км)
Погода в Шумихе (Курганская область, Россия) (88 км)
Погода в Далматово (Курганская область, Россия) (94 км)
Погода в Каменск-Уральском (Свердловская область, Россия) (95 км)
Погода в Шадринске (Курганская область, Россия) (113 км)
Погода в Верхнем Уфалее (Челябинская область, Россия) (124 км)
Погода в Сысерти (Свердловская область, Россия) (128 км)
Погода в Октябрьском (Челябинская область, Россия) (135 км)
Погода в Южноуральске (Челябинская область, Россия) (136 км)

Пояснения к столбцам:

Ветер - указаны скорость ветра в м/с - средняя за 10 мин, порывы в срок и между сроками (в фигурных скобках) и направление, откуда дует ветер: С - северный, СВ - северо-восточный, В - восточный, ЮВ - юго-восточный, Ю - южный, ЮЗ - юго-западный, З - западный, СЗ - северо-западный.
Видимость - горизонтальная дальность видимости в метрах или километрах. При видимости от 1 до 10 км при отсутствии осадков обычно наблюдается дымка, при ухудшении видимости до 1 км и менее - туман. В сухую погоду видимость может ухудшаться дымом, пылью или мглою.
Явления - указаны атмосферные явления, наблюдавшиеся в срок или в последний час перед сроком; фигурными скобками обозначены явления, наблюдавшиеся между сроками (за 1-3 часа до срока); квадратными скобками обозначены град или гололедные отложения с указанием их диаметра в мм.
Облачность - указаны через наклонную черту общая и нижняя облачность в баллах и высота нижней границы облаков в метрах; квадратными скобками обозначены формы облаков: Ci - перистые, Cs - перисто-слоистые, Cc - перисто-кучевые, Ac - высококучевые, As - высокослоистые, Sc - слоисто-кучевые, Ns - слоисто-дождевые, Cu - кучевые, Cb - кучево-дождевые. Подробнее классификацию облаков см. в Атласе облаков (PDF).
T - Температура воздуха - температура, измеренная на высоте 2 м над землей.
Td - Температура точки росы - температура, при понижении до которой содержащийся в воздухе водяной пар достигнет насыщения.
f - Относительная влажность воздуха - влажноcть воздуха, измеренная на высоте 2 м над землей.
Te - Эффективная температура - температура, которую ощущает одетый по сезону человек в тени. Характеристика душности погоды. При расчете учитывается влияние влажности воздуха и скорости ветра на теплоощущения человека.
Tes - Эффективная температура на солнце - температура, которую ощущает человек, с поправкой на солнечный нагрев. Характеристика знойности погоды. Зависит от высоты солнца над горизонтом, облачности и скорости ветра. Ночью, в пасмурную погоду, а также при ветре 12 м/с и более поправка равна нулю.
P - Атмосферное давление - приведенное к уровню моря атмосферное давление.
Po - Атмосферное давление - измеренное на уровне метеостанции атмосферное давление.
Tmin - Минимальная температура - минимум температуры воздуха на высоте 2 м над землей.
Tmax - Максимальная температура - максимум температуры воздуха на высоте 2 м над землей.
R - Количество осадков - Количество выпавших осадков за период времени, мм. При наведении курсора мыши на число - период времени, за который выпало указанное количество осадков.
R24 - Количество осадков - Количество выпавших осадков за 24 часа, мм.
S - Снежный покров - Высота снежного покрова, см. При наведении курсора мыши на число - состояние снежного покрова и степень покрытия местности в баллах.